COSMOS 2473             
1 37806U 11048A   19258.89894949 -.00000116  00000-0  00000-0 0  9992
2 37806   0.0591 107.5342 0002195  76.1499 121.0128  1.00272785 29330
BREEZE-M R/B            
1 37807U 11048B   19258.65595704 -.00000135  00000-0  00000-0 0  9995
2 37807   5.4219  60.6730 0242499  21.3777 356.2690  1.04263784 29903
BREEZE-M DEB [TANK]     
1 37808U 11048C   19258.30885973 -.00000099  00000-0 -11058-2 0  9995
2 37808  48.0864 316.4094 7043288 339.1933   2.8347  2.28687838 66590